User: anonymous   Login
Location: Unspecified
(0.0000°N, 0.0000°E)
Time: 01:59:16
(UTC+00:00)
Language:

TATIANA 2 - Orbit

View from above orbital plane
View from above orbital plane
View from above satellite
View from above satellite

Ground track
Ground track

The orbit data is extracted from the following two-line orbital elements,

1 35868U 09049D   17147.94775292 -.00000002 +00000-0 +17769-4 0  9994
2 35868 098.4174 172.0560 0004315 170.4804 189.6457 14.22773787399271
Epoch (UTC): 27 May 2017 22:44:45
Eccentricity: 0.0004315
inclination: 98.4174°
perigee height: 813 km
apogee height: 819 km
right ascension of ascending node: 172.0560°
argument of perigee: 170.4804°
revolutions per day: 14.22773787
mean anomaly at epoch: 189.6457°
orbit number at epoch: 39927

The dashed part of the orbit path shows where the satellite is in the earth's shadow,  

DLR